Time,TemperatureF,DewpointF,PressureIn,WindDirection,WindDirectionDegrees,WindSpeedMPH,WindSpeedGustMPH,Humidity,HourlyPrecipIn,Conditions,Clouds,dailyrainin,SoftwareType,DateUTC
2013-09-10 00:12:00,58.0,40.0,-100.00,NE,45,5.0,9.0,51,-99.99,,,-99.99,,2013-09-10 07:12:00,
2013-09-10 00:21:00,58.0,40.0,-100.00,NE,45,6.0,9.0,50,-99.99,,,-99.99,,2013-09-10 07:21:00,
2013-09-10 00:42:00,59.0,40.0,-100.00,NE,45,6.0,10.0,49,-99.99,,,-99.99,,2013-09-10 07:42:00,
2013-09-10 00:52:00,58.0,40.0,-100.00,NE,45,4.0,9.0,51,-99.99,,,-99.99,,2013-09-10 07:52:00,
2013-09-10 01:22:00,57.0,39.0,-100.00,NE,45,4.0,8.0,51,-99.99,,,-99.99,,2013-09-10 08:22:00,
2013-09-10 01:42:00,58.0,39.0,-100.00,NE,45,4.0,7.0,50,-99.99,,,-99.99,,2013-09-10 08:42:00,
2013-09-10 01:52:00,58.0,39.0,-100.00,NE,45,4.0,8.0,50,-99.99,,,-99.99,,2013-09-10 08:52:00,
2013-09-10 02:11:00,57.0,39.0,-100.00,NE,45,4.0,7.0,51,-99.99,,,-99.99,,2013-09-10 09:11:00,
2013-09-10 02:21:00,57.0,39.0,-100.00,NE,45,4.0,7.0,51,-99.99,,,-99.99,,2013-09-10 09:21:00,
2013-09-10 02:43:00,57.0,40.0,-100.00,NE,45,3.0,6.0,52,-99.99,,,-99.99,,2013-09-10 09:43:00,
2013-09-10 03:42:00,57.0,40.0,-100.00,NE,45,3.0,4.0,53,-99.99,,,-99.99,,2013-09-10 10:42:00,
2013-09-10 03:53:00,57.0,40.0,-100.00,NE,45,3.0,6.0,53,-99.99,,,-99.99,,2013-09-10 10:53:00,
2013-09-10 04:52:00,56.0,39.0,-100.00,NE,45,4.0,6.0,53,-99.99,,,-99.99,,2013-09-10 11:52:00,
2013-09-10 05:11:00,57.0,39.0,-100.00,NE,45,4.0,8.0,52,-99.99,,,-99.99,,2013-09-10 12:11:00,
2013-09-10 05:22:00,56.0,39.0,-100.00,NE,45,3.0,6.0,53,-99.99,,,-99.99,,2013-09-10 12:22:00,
2013-09-10 05:52:00,56.0,38.0,-100.00,NE,45,3.0,4.0,51,-99.99,,,-99.99,,2013-09-10 12:52:00,
2013-09-10 06:21:00,55.0,38.0,-100.00,NE,45,4.0,6.0,52,-99.99,,,-99.99,,2013-09-10 13:21:00,
2013-09-10 07:11:00,55.0,38.0,-100.00,NE,45,4.0,6.0,52,-99.99,,,-99.99,,2013-09-10 14:11:00,
2013-09-10 07:42:00,56.0,39.0,-100.00,NE,45,3.0,4.0,51,-99.99,,,-99.99,,2013-09-10 14:42:00,
2013-09-10 08:54:00,61.0,39.0,-100.00,NE,45,4.0,6.0,43,-99.99,,,-99.99,,2013-09-10 15:54:00,
2013-09-10 09:23:00,63.0,38.0,-100.00,NE,45,3.0,6.0,39,-99.99,,,-99.99,,2013-09-10 16:23:00,
2013-09-10 09:53:00,65.0,38.0,-100.00,East,90,2.0,7.0,37,-99.99,,,-99.99,,2013-09-10 16:53:00,
2013-09-10 10:12:00,65.0,37.0,-100.00,SE,135,1.0,8.0,36,-99.99,,,-99.99,,2013-09-10 17:12:00,
2013-09-10 10:23:00,65.0,39.0,-100.00,East,90,4.0,7.0,37,-99.99,,,-99.99,,2013-09-10 17:23:00,
2013-09-10 10:43:00,65.0,37.0,-100.00,East,90,7.0,11.0,36,-99.99,,,-99.99,,2013-09-10 17:43:00,
2013-09-10 10:52:00,66.0,37.0,-100.00,East,90,4.0,10.0,34,-99.99,,,-99.99,,2013-09-10 17:52:00,
2013-09-10 11:12:00,66.0,38.0,-100.00,East,90,6.0,8.0,36,-99.99,,,-99.99,,2013-09-10 18:12:00,
2013-09-10 11:21:00,66.0,39.0,-100.00,SE,135,8.0,10.0,37,-99.99,,,-99.99,,2013-09-10 18:21:00,
2013-09-10 11:42:00,66.0,39.0,-100.00,SE,135,6.0,11.0,37,-99.99,,,-99.99,,2013-09-10 18:42:00,
2013-09-10 11:52:00,67.0,39.0,-100.00,East,90,3.0,11.0,36,-99.99,,,-99.99,,2013-09-10 18:52:00,
2013-09-10 12:11:00,66.0,40.0,-100.00,NE,45,3.0,11.0,38,-99.99,,,-99.99,,2013-09-10 19:11:00,
2013-09-10 12:21:00,68.0,39.0,-100.00,East,90,3.0,10.0,34,-99.99,,,-99.99,,2013-09-10 19:21:00,
2013-09-10 12:42:00,68.0,39.0,-100.00,NE,45,7.0,11.0,35,-99.99,,,-99.99,,2013-09-10 19:42:00,
2013-09-10 12:52:00,69.0,38.0,-100.00,South,180,3.0,12.0,32,-99.99,,,-99.99,,2013-09-10 19:52:00,
2013-09-10 13:11:00,70.0,37.0,-100.00,South,180,3.0,10.0,30,-99.99,,,-99.99,,2013-09-10 20:11:00,
2013-09-10 13:21:00,69.0,37.0,-100.00,East,90,7.0,12.0,31,-99.99,,,-99.99,,2013-09-10 20:21:00,
2013-09-10 13:42:00,70.0,35.0,-100.00,SE,135,6.0,9.0,28,-99.99,,,-99.99,,2013-09-10 20:42:00,
2013-09-10 13:52:00,70.0,37.0,-100.00,East,90,6.0,9.0,30,-99.99,,,-99.99,,2013-09-10 20:52:00,
2013-09-10 14:11:00,71.0,38.0,-100.00,SE,135,3.0,10.0,30,-99.99,,,-99.99,,2013-09-10 21:11:00,
2013-09-10 14:22:00,70.0,38.0,-100.00,NE,45,8.0,14.0,30,-99.99,,,-99.99,,2013-09-10 21:22:00,
2013-09-10 14:44:00,71.0,38.0,-100.00,NE,45,9.0,14.0,30,-99.99,,,-99.99,,2013-09-10 21:44:00,
2013-09-10 14:54:00,72.0,38.0,-100.00,East,90,9.0,16.0,29,-99.99,,,-99.99,,2013-09-10 21:54:00,
2013-09-10 15:13:00,72.0,37.0,-100.00,East,90,6.0,12.0,28,-99.99,,,-99.99,,2013-09-10 22:13:00,
2013-09-10 15:42:00,71.0,37.0,-100.00,East,90,7.0,16.0,29,-99.99,,,-99.99,,2013-09-10 22:42:00,
2013-09-10 15:54:00,72.0,38.0,-100.00,East,90,9.0,16.0,28,-99.99,,,-99.99,,2013-09-10 22:54:00,
2013-09-10 16:22:00,73.0,37.0,-100.00,NE,45,8.0,15.0,27,-99.99,,,-99.99,,2013-09-10 23:22:00,
2013-09-10 16:42:00,72.0,36.0,-100.00,NE,45,9.0,16.0,27,-99.99,,,-99.99,,2013-09-10 23:42:00,
2013-09-10 16:53:00,73.0,37.0,-100.00,NE,45,7.0,13.0,27,-99.99,,,-99.99,,2013-09-10 23:53:00,
2013-09-10 17:11:00,72.0,37.0,-100.00,NE,45,8.0,14.0,28,-99.99,,,-99.99,,2013-09-11 00:11:00,
2013-09-10 17:22:00,72.0,37.0,-100.00,NE,45,9.0,15.0,28,-99.99,,,-99.99,,2013-09-11 00:22:00,
2013-09-10 17:42:00,72.0,39.0,-100.00,NE,45,8.0,14.0,30,-99.99,,,-99.99,,2013-09-11 00:42:00,
2013-09-10 17:52:00,70.0,38.0,-100.00,NE,45,9.0,16.0,31,-99.99,,,-99.99,,2013-09-11 00:52:00,
2013-09-10 18:11:00,70.0,39.0,-100.00,NE,45,9.0,16.0,32,-99.99,,,-99.99,,2013-09-11 01:11:00,
2013-09-10 18:21:00,70.0,39.0,-100.00,NE,45,10.0,16.0,33,-99.99,,,-99.99,,2013-09-11 01:21:00,
2013-09-10 18:41:00,69.0,40.0,-100.00,NE,45,12.0,17.0,34,-99.99,,,-99.99,,2013-09-11 01:41:00,
2013-09-10 18:53:00,69.0,40.0,-100.00,NE,45,9.0,18.0,35,-99.99,,,-99.99,,2013-09-11 01:53:00,
2013-09-10 19:11:00,68.0,40.0,-100.00,NE,45,9.0,13.0,35,-99.99,,,-99.99,,2013-09-11 02:11:00,
2013-09-10 19:22:00,67.0,40.0,-100.00,NE,45,8.0,12.0,37,-99.99,,,-99.99,,2013-09-11 02:22:00,
2013-09-10 19:43:00,66.0,39.0,-100.00,NE,45,6.0,14.0,37,-99.99,,,-99.99,,2013-09-11 02:43:00,
2013-09-10 19:52:00,66.0,38.0,-100.00,NE,45,9.0,14.0,36,-99.99,,,-99.99,,2013-09-11 02:52:00,
2013-09-10 20:12:00,65.0,39.0,-100.00,NE,45,8.0,13.0,37,-99.99,,,-99.99,,2013-09-11 03:12:00,
2013-09-10 20:22:00,64.0,38.0,-100.00,NE,45,6.0,10.0,39,-99.99,,,-99.99,,2013-09-11 03:22:00,
2013-09-10 20:44:00,64.0,39.0,-100.00,NE,45,7.0,12.0,40,-99.99,,,-99.99,,2013-09-11 03:44:00,
2013-09-10 20:54:00,63.0,40.0,-100.00,NE,45,6.0,11.0,43,-99.99,,,-99.99,,2013-09-11 03:54:00,
2013-09-10 21:24:00,62.0,41.0,-100.00,NE,45,6.0,13.0,45,-99.99,,,-99.99,,2013-09-11 04:24:00,
2013-09-10 21:43:00,61.0,41.0,-100.00,NE,45,7.0,12.0,46,-99.99,,,-99.99,,2013-09-11 04:43:00,
2013-09-10 21:54:00,61.0,41.0,-100.00,NE,45,5.0,12.0,47,-99.99,,,-99.99,,2013-09-11 04:54:00,
2013-09-10 22:12:00,62.0,41.0,-100.00,NE,45,6.0,12.0,46,-99.99,,,-99.99,,2013-09-11 05:12:00,
2013-09-10 22:22:00,61.0,40.0,-100.00,NE,45,5.0,9.0,47,-99.99,,,-99.99,,2013-09-11 05:22:00,
2013-09-10 22:42:00,61.0,40.0,-100.00,NE,45,5.0,9.0,46,-99.99,,,-99.99,,2013-09-11 05:42:00,
2013-09-10 22:53:00,61.0,40.0,-100.00,NE,45,4.0,8.0,46,-99.99,,,-99.99,,2013-09-11 05:53:00,
2013-09-10 23:12:00,61.0,40.0,-100.00,NE,45,3.0,8.0,46,-99.99,,,-99.99,,2013-09-11 06:12:00,
2013-09-10 23:21:00,62.0,40.0,-100.00,NE,45,4.0,7.0,44,-99.99,,,-99.99,,2013-09-11 06:21:00,
2013-09-10 23:42:00,62.0,40.0,-100.00,NE,45,3.0,8.0,44,-99.99,,,-99.99,,2013-09-11 06:42:00,
2013-09-10 23:52:00,62.0,39.0,-100.00,NE,45,3.0,8.0,43,-99.99,,,-99.99,,2013-09-11 06:52:00,